• In Uzbekistan
  • List of Countries
  • For 7 days
  • Water Temperature
  • Satellite Maps
  • Weather Map
  • Weather Widgets
  • user-avatar
    Login

    Hourly Weather Sydney

    Today, 4 December, Sunday

    Time Temperature Precipitation Wind Pressure Humidity
    00:00 +18°C° 0 mm 1 mps 761 mmHg 97%
    01:00 +16°C° 0 mm 0 mps 761 mmHg 97%
    02:00 +16°C° 0 mm 0 mps 761 mmHg 97%
    03:00 +15°C° 0 mm 0 mps 761 mmHg 98%
    04:00 +16°C° 0 mm 1 mps 761 mmHg 98%
    05:00 +19°C° 0 mm 1 mps 761 mmHg 92%
    06:00 +19°C° 0 mm 0 mps 761 mmHg 85%
    07:00 +21°C° 0 mm 0 mps 761 mmHg 79%
    08:00 +26°C° 0 mm 1 mps 761 mmHg 68%
    09:00 +28°C° 0 mm 2 mps 760 mmHg 58%
    10:00 +31°C° 0 mm 2 mps 760 mmHg 49%
    11:00 +33°C° 0 mm 3 mps 760 mmHg 46%
    12:00 +34°C° 0 mm 4 mps 759 mmHg 43%
    13:00 +35°C° 0 mm 4 mps 759 mmHg 40%
    14:00 +34°C° 0 mm 5 mps 758 mmHg 44%
    15:00 +33°C° 0 mm 5 mps 758 mmHg 49%
    16:00 +30°C° 0 mm 5 mps 758 mmHg 54%
    17:00 +28°C° 0 mm 5 mps 758 mmHg 62%
    18:00 +26°C° 0 mm 4 mps 758 mmHg 71%
    19:00 +23°C° 0 mm 4 mps 758 mmHg 79%
    20:00 +22°C° 0 mm 4 mps 758 mmHg 84%
    21:00 +21°C° 0 mm 4 mps 758 mmHg 89%
    22:00 +20°C° 0 mm 4 mps 758 mmHg 94%
    23:00 +20°C° 0.2 mm 3 mps 758 mmHg 94%

    Tomorrow, 5 December, Monday

    Time Temperature Precipitation Wind Pressure Humidity
    00:00 +20°C° 0.2 mm 3 mps 758 mmHg 94%
    01:00 +20°C° 0.2 mm 2 mps 757 mmHg 95%
    02:00 +20°C° 1.1 mm 2 mps 757 mmHg 95%
    03:00 +20°C° 1.1 mm 2 mps 757 mmHg 96%
    04:00 +20°C° 1.1 mm 3 mps 756 mmHg 96%
    05:00 +22°C° 1 mm 3 mps 756 mmHg 93%
    06:00 +24°C° 1 mm 2 mps 756 mmHg 89%
    07:00 +25°C° 1 mm 2 mps 756 mmHg 86%
    08:00 +28°C° 0.2 mm 3 mps 756 mmHg 71%
    09:00 +33°C° 0.2 mm 3 mps 756 mmHg 57%
    10:00 +36°C° 0.2 mm 3 mps 756 mmHg 43%
    11:00 +37°C° 0 mm 4 mps 755 mmHg 41%
    12:00 +37°C° 0 mm 4 mps 755 mmHg 39%
    13:00 +38°C° 0 mm 4 mps 754 mmHg 38%
    14:00 +37°C° 0.2 mm 4 mps 754 mmHg 40%
    15:00 +36°C° 0.2 mm 4 mps 754 mmHg 43%
    16:00 +35°C° 0.2 mm 4 mps 754 mmHg 46%
    17:00 +32°C° 3 mm 4 mps 755 mmHg 62%
    18:00 +28°C° 3 mm 4 mps 756 mmHg 77%
    19:00 +25°C° 3 mm 4 mps 756 mmHg 93%
    20:00 +25°C° 0.5 mm 4 mps 757 mmHg 94%
    21:00 +23°C° 0.5 mm 5 mps 758 mmHg 95%
    22:00 +22°C° 0.5 mm 5 mps 758 mmHg 96%
    23:00 +22°C° 0.7 mm 4 mps 758 mmHg 96%

    Day after tomorrow, 6 December, Tuesday

    Time Temperature Precipitation Wind Pressure Humidity
    00:00 +22°C° 0.7 mm 4 mps 758 mmHg 96%
    01:00 +21°C° 0.7 mm 3 mps 758 mmHg 96%
    02:00 +21°C° 0.2 mm 3 mps 758 mmHg 96%
    03:00 +21°C° 0.2 mm 3 mps 757 mmHg 96%
    04:00 +21°C° 0.2 mm 4 mps 757 mmHg 96%
    05:00 +21°C° 0 mm 3 mps 757 mmHg 94%
    06:00 +22°C° 0 mm 3 mps 757 mmHg 92%
    07:00 +22°C° 0 mm 3 mps 757 mmHg 90%
    08:00 +25°C° 0 mm 3 mps 757 mmHg 80%
    09:00 +28°C° 0 mm 2 mps 757 mmHg 70%
    10:00 +30°C° 0 mm 2 mps 757 mmHg 60%
    11:00 +32°C° 0.4 mm 2 mps 756 mmHg 57%
    12:00 +34°C° 0.4 mm 2 mps 756 mmHg 55%
    13:00 +35°C° 0.4 mm 3 mps 756 mmHg 52%
    14:00 +31°C° 1.2 mm 3 mps 756 mmHg 65%
    15:00 +28°C° 1.2 mm 3 mps 756 mmHg 78%
    16:00 +25°C° 1.2 mm 4 mps 756 mmHg 92%
    17:00 +25°C° 0.4 mm 3 mps 756 mmHg 93%
    18:00 +24°C° 0.4 mm 2 mps 757 mmHg 95%
    19:00 +23°C° 0.4 mm 1 mps 757 mmHg 96%
    20:00 +23°C° 0.7 mm 2 mps 758 mmHg 96%
    21:00 +23°C° 0.7 mm 2 mps 759 mmHg 96%
    22:00 +23°C° 0.7 mm 2 mps 759 mmHg 96%
    23:00 +21°C° 0.1 mm 2 mps 759 mmHg 96%

    7 December, Wednesday

    Time Temperature Precipitation Wind Pressure Humidity
    00:00 +21°C° 0.1 mm 2 mps 759 mmHg 96%
    01:00 +20°C° 0.1 mm 2 mps 759 mmHg 95%
    02:00 +20°C° 0.1 mm 3 mps 759 mmHg 95%
    03:00 +20°C° 0.1 mm 4 mps 759 mmHg 95%
    04:00 +20°C° 0.1 mm 4 mps 759 mmHg 95%
    05:00 +20°C° 0.1 mm 4 mps 759 mmHg 94%
    06:00 +20°C° 0.1 mm 4 mps 760 mmHg 92%
    07:00 +20°C° 0.1 mm 4 mps 761 mmHg 91%
    08:00 +21°C° 0 mm 3 mps 761 mmHg 85%
    09:00 +22°C° 0 mm 3 mps 761 mmHg 80%
    10:00 +24°C° 0 mm 3 mps 761 mmHg 75%
    11:00 +25°C° 0 mm 3 mps 761 mmHg 67%
    12:00 +27°C° 0 mm 3 mps 760 mmHg 60%
    13:00 +28°C° 0 mm 3 mps 760 mmHg 52%
    14:00 +28°C° 0 mm 4 mps 759 mmHg 53%
    15:00 +28°C° 0 mm 5 mps 759 mmHg 55%
    16:00 +27°C° 0 mm 5 mps 758 mmHg 56%
    17:00 +26°C° 0 mm 5 mps 759 mmHg 63%
    18:00 +23°C° 0 mm 5 mps 759 mmHg 70%
    19:00 +21°C° 0 mm 5 mps 759 mmHg 76%
    20:00 +20°C° 0 mm 5 mps 760 mmHg 81%
    21:00 +20°C° 0 mm 4 mps 760 mmHg 86%
    22:00 +19°C° 0 mm 4 mps 760 mmHg 90%
    23:00 +18°C° 0 mm 4 mps 759 mmHg 92%

    8 December, Thursday

    Time Temperature Precipitation Wind Pressure Humidity
    00:00 +18°C° 0 mm 4 mps 759 mmHg 95%
    01:00 +18°C° 0 mm 4 mps 758 mmHg 97%
    02:00 +18°C° 0 mm 4 mps 758 mmHg 97%
    03:00 +18°C° 0 mm 4 mps 758 mmHg 98%
    04:00 +18°C° 0 mm 4 mps 758 mmHg 98%
    05:00 +19°C° 0 mm 4 mps 757 mmHg 92%
    06:00 +20°C° 0 mm 4 mps 757 mmHg 86%
    07:00 +22°C° 0 mm 4 mps 757 mmHg 80%
    08:00 +26°C° 0 mm 5 mps 757 mmHg 69%
    09:00 +29°C° 0 mm 5 mps 756 mmHg 57%
    10:00 +33°C° 0 mm 5 mps 755 mmHg 46%
    11:00 +35°C° 0 mm 6 mps 754 mmHg 39%
    12:00 +36°C° 0 mm 6 mps 753 mmHg 32%
    13:00 +39°C° 0 mm 7 mps 752 mmHg 26%
    14:00 +39°C° 0 mm 7 mps 751 mmHg 28%
    15:00 +38°C° 0 mm 8 mps 751 mmHg 30%
    16:00 +38°C° 0 mm 8 mps 750 mmHg 32%
    17:00 +34°C° 0 mm 8 mps 750 mmHg 40%
    18:00 +32°C° 0 mm 7 mps 750 mmHg 48%
    19:00 +28°C° 0 mm 7 mps 749 mmHg 56%
    20:00 +27°C° 0.2 mm 6 mps 750 mmHg 62%
    21:00 +26°C° 0.2 mm 5 mps 750 mmHg 69%
    22:00 +23°C° 0.2 mm 5 mps 750 mmHg 76%
    23:00 +22°C° 0.5 mm 5 mps 750 mmHg 81%

    9 December, Friday

    Time Temperature Precipitation Wind Pressure Humidity
    00:00 +22°C° 0.5 mm 6 mps 751 mmHg 87%
    01:00 +21°C° 0.5 mm 6 mps 751 mmHg 92%
    02:00 +20°C° 0.5 mm 7 mps 752 mmHg 92%
    03:00 +20°C° 0.5 mm 8 mps 753 mmHg 92%
    04:00 +18°C° 0.5 mm 8 mps 754 mmHg 92%
    05:00 +18°C° 0.1 mm 8 mps 755 mmHg 87%
    06:00 +18°C° 0.1 mm 8 mps 756 mmHg 82%
    07:00 +18°C° 0.1 mm 7 mps 757 mmHg 77%
    08:00 +20°C° 0 mm 7 mps 758 mmHg 67%
    09:00 +22°C° 0 mm 7 mps 758 mmHg 57%
    10:00 +23°C° 0 mm 6 mps 759 mmHg 47%
    11:00 +24°C° 0 mm 6 mps 759 mmHg 45%
    12:00 +24°C° 0 mm 6 mps 759 mmHg 43%
    13:00 +26°C° 0 mm 6 mps 759 mmHg 40%
    14:00 +24°C° 0 mm 7 mps 759 mmHg 43%
    15:00 +23°C° 0 mm 7 mps 759 mmHg 45%
    16:00 +22°C° 0 mm 7 mps 760 mmHg 48%
    17:00 +21°C° 0 mm 7 mps 761 mmHg 54%
    18:00 +19°C° 0 mm 6 mps 762 mmHg 61%
    19:00 +17°C° 0 mm 6 mps 763 mmHg 68%
    20:00 +17°C° 0 mm 6 mps 764 mmHg 69%
    21:00 +17°C° 0 mm 5 mps 764 mmHg 70%
    22:00 +16°C° 0 mm 5 mps 765 mmHg 72%
    23:00 +16°C° 0 mm 5 mps 765 mmHg 72%
    Show more